Location: Argonnex
(45.9500°N, 6.1333°E)
Time: 08:40:56
(UTC+00:00)

CZ-6A DEB - Pass Details

Date: 26 February 2024
Orbit: 827 x 907 km, 98.8° (Epoch: 12 April)

Event Time Altitude Azimuth Distance (km) Brightness Sun altitude
Rises 17:37:45 0° 197° (SSW) 3,520 ? -4.4°
Reaches altitude 10° 17:40:32 10° 209° (SSW) 2,579 ? -4.9°
Maximum altitude 17:45:21 27° 266° (W) 1,656 ? -5.7°
Drops below altitude 10° 17:50:08 10° 323° (NW) 2,563 ? -6.5°
Sets 17:52:55 0° 336° (NNW) 3,495 ? -7.0°
